Regional Weather Roundup
Issued by NWS

Home | Current Version | Previous Version | Graphics & Text | Print | Product List | Glossary On
Versions: 1 2 3 4 5 6 7 8 9 10 11 12 13 14 15 16 17 18 19 20 21 22 23 24 25 26 27 28 29 30 31 32 33 34 35 36 37 38 39 40 41 42 43 44 45 46 47 48 49 50
737
ASUS44 KMEG 270210
RWRTN
TENNESSEE HOURLY STATE WEATHER ROUNDUP
NATIONAL WEATHER SERVICE MEMPHIS TN
900 PM CDT WED APR 26 2017

TNZ002-004-019-021-049-052-054-088>092-270300-
WEST TENNESSEE

CITY           SKY/WX    TMP DP  RH WIND       PRES   REMARKS
MEMPHIS INTL   TSTM      63  62  97 SE5       29.55F
NWS MEMPHIS      N/A     62 N/A N/A MISG        N/A
JACKSON        CLOUDY    65  61  87 NW13G25   29.54R
DYERSBURG      TSTM      59  58  96 CALM      29.56R FOG
SOMERVILLE       N/A    N/A N/A N/A SW9       29.58R
UNION CITY     CLOUDY    57  55  94 NE3       29.56F FOG
BOLIVAR        MOCLDY    75  59  57 S13G21    29.52R
PARIS          CLOUDY    66  55  68 NW10      29.57R
HUNTINGDON     CLOUDY    73  59  60 SW9G15    29.52R
LEXINGTON      CLOUDY    73  59  60 S12G20    29.54S
SAVANNAH       CLOUDY    73  59  60 S12G17    29.56S
$$

TNZ008-025-027-028-033-062-065-066-270300-
NORTH MIDDLE TENNESSEE

CITY           SKY/WX    TMP DP  RH WIND       PRES   REMARKS
NASHVILLE      CLOUDY    74  58  57 S16       29.59S
PORTLAND       CLEAR     72  59  64 S12       29.58S
CLARKSVILLE    PTCLDY    74  56  53 S12G20    29.55R
SMYRNA         CLEAR     71  60  68 SE9       29.61S
COOKEVILLE     CLEAR     73  59  60 S12G18    29.64R
GALLATIN       CLEAR     73  59  60 VRB6      29.63R
CROSSVILLE     CLEAR     71  55  56 S10G18    29.73R
$$

TNZ061-075-076-078-094-096-097-270300-
SOUTH MIDDLE TENNESSEE

CITY           SKY/WX    TMP DP  RH WIND       PRES   REMARKS
FAYETTEVILLE   CLEAR     72  59  64 S16       29.65R
TULLAHOMA      CLEAR     70  55  60 S9        29.67R
WINCHESTER     CLEAR     72  57  60 VRB6      29.68S
MCMINNVILLE    CLEAR     73  59  60 S10       29.66R
COLUMBIA       CLEAR     72  64  78 S7        29.58R
SHELBYVILLE    CLEAR     73  61  64 S12       29.64R
$$

TNZ017-018-042-046-047-270300-
NORTHEAST TENNESSEE

CITY           SKY/WX    TMP DP  RH WIND       PRES   REMARKS
TRI CITIES     PTCLDY    74  56  53 S7        29.75R
ELIZABETHTON   CLEAR     72  57  60 E6G13     29.76R
$$

TNZ012-013-036-069-073-074-270300-
CENTRAL EAST TENNESSEE

CITY           SKY/WX    TMP DP  RH WIND       PRES   REMARKS
KNOXVILLE      CLEAR     70  61  73 S5        29.70R
OAK RIDGE      CLEAR     72  59  63 CALM      29.71R
DOWNTOWN KNOXV CLEAR     66  63  88 CALM      29.70R
GATLINBURG     CLEAR     66  61  82 CALM      29.71R
MORRISTOWN     CLEAR     70  61  73 CALM      29.71R
JACKSBORO      CLEAR     70  59  68 CALM      29.72R
$$

TNZ083-085-099-270300-
SOUTHEAST TENNESSEE

CITY           SKY/WX    TMP DP  RH WIND       PRES   REMARKS
CHATTANOOGA    PTCLDY    74  58  57 S5        29.72R
$$

SKY/WX REPORTED AS FAIR MEANS FEW OR NO CLOUDS BELOW
12 THOUSAND FEET.





USA.gov is the U.S. government's official web portal to all federal, state and local government web resources and services.